ELEKTRON 3 DEB, 29008

Orbit data source: Space-Track

ELEKTRON 3 DEB, 29008 is space debris originally from a launch on Fri, 10 Jul 1964 UTC launched from the Tyuratam Missile And Space Complex (TTMTR). Debris objects in space refer to the collection of defunct objects orbiting the Earth. Examples of debris include non-operational satellites, rocket bodies, and fragments generated from explosions, collisions, or faulty payload assembly.

Loading next visibility...
Identifier
29008, 1964-038G
Orbit
Active
Last TLE update
1 year ago
Origin
Manufacturer
Unknown
Mission
Spacecraft
Bus & Motor
Unknown
Mass
Unknown
Launch date (UTC)
1964-07-10 (61 years ago)
Launch vehicle
Unknown
Launch site
Tyuratam Missile And Space Complex (TTMTR)
Object type
Payload
Rocket body
Debris
Shape & HBR
Unknown
Radar Cross Section
Small (<0.1 m²)

Expand to show TLE details & history

TLE from 1 year ago
0 ELEKTRON 3 DEB
1 29008U 64038G   24088.72519352  .00006098  00000-0  15301-2 0  9991
2 29008  60.8373 212.7064 2884248 173.7282 190.9870  9.32974262656135
Epoch: 2024-03-28T17:24Z
TLE epoch observation values (Epoch: 2024-03-28T17:24:16.72Z)
Latitude
-0.00005°
Longitude
125.01797°
Altitude
5,873.414 km
Speed
4.823 km/s
True Right ascension
14h 10m 49s
True Declination
0° 00' 00"
Sunlit
Object was in full shadow at epoch
Visualization orbit readout
Latitude
44.68356°
Longitude
-139.53596°
Altitude
3,542.59 km
Speed
6.199 km/s
Apparent Right ascension
17h 37m 24s
Apparent Declination
27° 57' 58"
Sunlit
Object is in daylight
Visualization observer readout
Local Sidereal Time
23:52:59
Azimuth
294.317° NW
Elevation
14.767°
Doppler factor
1
Orbital elements
Apogee altitude
5,901.351 km
Perigee altitude
403.616 km
Semi-major axis
9,530.62 km
Eccentricity
0.28842
Inclination
60.8373°
RAAN
212.7064°
Arg. of periapsis
173.7282°
True anomaly
Unknown
Mean anomaly
190.987°
Eccentric anomaly
Unknown
Mean motion
2.33271 °/min
Orbital period
154.33 mins
BSTAR
0.0015301
Loading maneuver chart data...
Loading SW <> Apogee altitude chart data...
Loading historical data...
Loading historical data...
Loading historical data...
Loading historical data...
Loading historical data...
Loading historical data...
Loading historical data...

ELEKTRON 3 DEB Visibility forecast

Observer location: undefined°, undefined°

Span
Click to sort rows by Start time (UTC) header in descending order
Start Az.
Max El. time (UTC)
Max El. Az.
Max El.
End time (UTC)
End Az.
57 mins2025-07-03 12:06:22.969Z294.224° NW2025-07-03 12:28:22.969Z5.084° NNE36.254°2025-07-03 13:03:22.969Z77.131° E
63 mins2025-07-03 14:52:22.969Z316.663° NNW2025-07-03 15:24:22.969Z41.231° NE43.058°2025-07-03 15:55:22.969Z126.423° SE
57 mins2025-07-03 17:37:22.969Z320.24° NNW2025-07-03 18:09:22.969Z255.689° W40.657°2025-07-03 18:34:22.969Z181.317° SSW
24 mins2025-07-03 20:30:22.969Z303.238° NW2025-07-03 20:42:22.969Z282.733° WNW14.045°2025-07-03 20:54:22.969Z258.972° W
25 mins2025-07-04 05:46:22.969Z136.102° SSE2025-07-04 05:54:22.969Z91.044° ESE25.024°2025-07-04 06:11:22.969Z44.333° NE
41 mins2025-07-04 08:20:22.969Z221.708° SW2025-07-04 08:31:22.969Z317.122° NNW44.8°2025-07-04 09:01:22.969Z41.166° NE
53 mins2025-07-04 11:02:22.969Z280.611° WNW2025-07-04 11:20:22.969Z349.249° N36.639°2025-07-04 11:55:22.969Z63.666° ENE
|